| time (UTC) | temp C | wind direction | speed KPH | gust KPH | rain 1hr cm | rain 24hr cm | rain mn cm | humidity % | barometer mb |
| 20260831182009 | 33 | 23 | 0.0 | 6.4 | 0.00 | 0.00 | 0.00 | 54 | 1017.7 |
| 20260831181603 | 34 | 4 | 0.0 | 6.4 | 0.00 | 0.00 | 0.00 | 55 | 1017.7 |
| 20260831181002 | 33 | 59 | 0.0 | 8.0 | 0.00 | 0.00 | 0.00 | 55 | 1017.7 |
| 20260831180510 | 33 | 115 | 0.0 | 8.0 | 0.00 | 0.00 | 0.00 | 57 | 1017.9 |
| 20260831175502 | 33 | 189 | 1.6 | 9.7 | 0.00 | 0.00 | 0.00 | 56 | 1018.0 |
| 20260831175009 | 33 | 217 | 0.0 | 9.7 | 0.00 | 0.00 | 0.00 | 59 | 1018.1 |
| 20260831174609 | 33 | 348 | 3.2 | 9.7 | 0.00 | 0.00 | 0.00 | 59 | 1018.1 |
| 20260831174110 | 33 | 326 | 0.0 | 1.6 | 0.00 | 0.00 | 0.00 | 59 | 1018.1 |
| 20260831173509 | 32 | 278 | 0.0 | 1.6 | 0.00 | 0.00 | 0.00 | 62 | 1018.1 |
| 20260831173103 | 32 | 336 | 0.0 | 3.2 | 0.00 | 0.00 | 0.00 | 61 | 1018.1 |
| 20260831172503 | 32 | 212 | 0.0 | 3.2 | 0.00 | 0.00 | 0.00 | 62 | 1018.2 |
| 20260831172012 | 32 | 359 | 0.0 | 1.6 | 0.00 | 0.00 | 0.00 | 60 | 1018.3 |
| 20260831171603 | 32 | 353 | 0.0 | 3.2 | 0.00 | 0.00 | 0.00 | 61 | 1018.3 |
| 20260831171002 | 32 | 344 | 0.0 | 3.2 | 0.00 | 0.00 | 0.00 | 63 | 1018.3 |
| 20260831170513 | 31 | 59 | 0.0 | 8.0 | 0.00 | 0.00 | 0.00 | 63 | 1018.3 |
| 20260831170132 | 31 | 90 | 0.0 | 8.0 | 0.00 | 0.00 | 0.00 | 63 | 1018.3 |
| 20260831165502 | 31 | 168 | 0.0 | 4.8 | 0.00 | 0.00 | 0.00 | 65 | 1018.4 |
| 20260831165010 | 31 | 36 | 0.0 | 4.8 | 0.00 | 0.00 | 0.00 | 64 | 1018.4 |
| 20260831164603 | 31 | 174 | 0.0 | 6.4 | 0.00 | 0.00 | 0.00 | 67 | 1018.5 |
| 20260831164003 | 31 | 351 | 0.0 | 9.7 | 0.00 | 0.00 | 0.00 | 64 | 1018.6 |
| 20260831163509 | 31 | 270 | 0.0 | 0.0 | 0.00 | 0.00 | 0.00 | 66 | 1018.7 |
| 20260831163103 | 31 | 170 | 0.0 | 1.6 | 0.00 | 0.00 | 0.00 | 66 | 1018.7 |
| 20260831162504 | 31 | 163 | 0.0 | 6.4 | 0.00 | 0.00 | 0.00 | 67 | 1018.7 |
| 20260831162010 | 31 | 188 | 0.0 | 6.4 | 0.00 | 0.00 | 0.00 | 66 | 1018.8 |
| 20260831161509 | 30 | 357 | 0.0 | 8.0 | 0.00 | 0.00 | 0.00 | 68 | 1018.8 |
| 20260831161103 | 30 | 309 | 0.0 | 8.0 | 0.00 | 0.00 | 0.00 | 70 | 1018.9 |
| 20260831160502 | 30 | 93 | 0.0 | 1.6 | 0.00 | 0.00 | 0.00 | 68 | 1018.9 |
| 20260831160023 | 30 | 82 | 0.0 | 3.2 | 0.00 | 0.00 | 0.00 | 68 | 1018.9 |
| 20260831155603 | 30 | 190 | 0.0 | 3.2 | 0.00 | 0.00 | 0.00 | 72 | 1018.9 |
| 20260831155002 | 30 | 174 | 0.0 | 4.8 | 0.00 | 0.00 | 0.00 | 73 | 1018.9 |
| 20260831154509 | 30 | 191 | 0.0 | 4.8 | 0.00 | 0.00 | 0.00 | 71 | 1018.9 |
| 20260831154102 | 29 | 182 | 0.0 | 4.8 | 0.00 | 0.00 | 0.00 | 71 | 1018.9 |
| 20260831153502 | 29 | 178 | 0.0 | 1.6 | 0.00 | 0.00 | 0.00 | 72 | 1019.0 |
| 20260831153010 | 28 | 6 | 0.0 | 3.2 | 0.00 | 0.00 | 0.00 | 75 | 1019.0 |
| 20260831152604 | 28 | 47 | 0.0 | 3.2 | 0.00 | 0.00 | 0.00 | 75 | 1019.0 |
| 20260831152006 | 28 | 147 | 0.0 | 1.6 | 0.00 | 0.00 | 0.00 | 76 | 1019.0 |
| 20260831151511 | 28 | 122 | 0.0 | 1.6 | 0.00 | 0.00 | 0.00 | 75 | 1019.1 |
| 20260831151103 | 28 | 3 | 0.0 | 1.6 | 0.00 | 0.00 | 0.00 | 78 | 1019.1 |
| 20260831150503 | 27 | 146 | 0.0 | 6.4 | 0.00 | 0.00 | 0.00 | 79 | 1019.2 |
| 20260831150010 | 27 | 21 | 0.0 | 6.4 | 0.00 | 0.00 | 0.00 | 80 | 1019.2 |
| 20260831145602 | 27 | 171 | 0.0 | 3.2 | 0.00 | 0.00 | 0.00 | 80 | 1019.2 |
| 20260831145003 | 26 | 159 | 0.0 | 1.6 | 0.00 | 0.00 | 0.00 | 81 | 1019.2 |
| 20260831144522 | 26 | 165 | 0.0 | 1.6 | 0.00 | 0.00 | 0.00 | 82 | 1019.3 |
| 20260831144106 | 26 | 136 | 0.0 | 1.6 | 0.00 | 0.00 | 0.00 | 83 | 1019.2 |
| 20260831143503 | 25 | 149 | 0.0 | 0.0 | 0.00 | 0.00 | 0.00 | 86 | 1019.3 |
| 20260831143009 | 25 | 140 | 0.0 | 3.2 | 0.00 | 0.00 | 0.00 | 86 | 1019.3 |
| 20260831142604 | 25 | 123 | 0.0 | 3.2 | 0.00 | 0.00 | 0.00 | 87 | 1019.2 |
| 20260831142004 | 25 | 8 | 0.0 | 6.4 | 0.00 | 0.00 | 0.00 | 89 | 1019.1 |
| 20260831141513 | 24 | 180 | 0.0 | 6.4 | 0.00 | 0.00 | 0.00 | 90 | 1019.1 |
| 20260831141102 | 24 | 24 | 0.0 | 1.6 | 0.00 | 0.00 | 0.00 | 91 | 1019.1 |
| 20260831140503 | 23 | 131 | 0.0 | 0.0 | 0.00 | 0.00 | 0.00 | 92 | 1019.1 |
| 20260831140010 | 23 | 141 | 0.0 | 1.6 | 0.00 | 0.00 | 0.00 | 93 | 1019.2 |
| 20260831135602 | 23 | 181 | 0.0 | 4.8 | 0.00 | 0.00 | 0.00 | 94 | 1019.2 |
| 20260831135004 | 22 | 202 | 0.0 | 8.0 | 0.00 | 0.00 | 0.00 | 96 | 1019.1 |
| 20260831134510 | 22 | 200 | 0.0 | 8.0 | 0.00 | 0.00 | 0.00 | 97 | 1019.1 |
| 20260831134103 | 22 | 176 | 0.0 | 0.0 | 0.00 | 0.00 | 0.00 | 98 | 1019.1 |
| 20260831133507 | 22 | 169 | 0.0 | 1.6 | 0.00 | 0.00 | 0.00 | 98 | 1019.2 |
| 20260831133009 | 21 | 172 | 0.0 | 0.0 | 0.00 | 0.00 | 0.00 | 98 | 1019.2 |
| 20260831132603 | 21 | 145 | 0.0 | 0.0 | 0.00 | 0.00 | 0.00 | 98 | 1019.3 |
| 20260831132003 | 21 | 186 | 0.0 | 0.0 | 0.00 | 0.00 | 0.00 | 98 | 1019.3 |
| 20260831131510 | 21 | 176 | 0.0 | 0.0 | 0.00 | 0.00 | 0.00 | 98 | 1019.3 |
| 20260831131103 | 20 | 176 | 0.0 | 0.0 | 0.00 | 0.00 | 0.00 | 98 | 1019.2 |
| 20260831130503 | 20 | 167 | 0.0 | 0.0 | 0.00 | 0.00 | 0.00 | 98 | 1019.2 |
| 20260831130009 | 20 | 219 | 0.0 | 0.0 | 0.00 | 0.00 | 0.00 | 98 | 1019.1 |
| 20260831125602 | 20 | 219 | 0.0 | 0.0 | 0.00 | 0.00 | 0.00 | 98 | 1019.1 |
| 20260831125005 | 19 | 219 | 0.0 | 0.0 | 0.00 | 0.00 | 0.00 | 98 | 1019.2 |
| 20260831124509 | 19 | 219 | 0.0 | 0.0 | 0.00 | 0.00 | 0.00 | 98 | 1019.2 |
| 20260831124103 | 19 | 219 | 0.0 | 0.0 | 0.00 | 0.00 | 0.00 | 98 | 1019.3 |
| 20260831123503 | 18 | 219 | 0.0 | 0.0 | 0.00 | 0.00 | 0.00 | 97 | 1019.2 |
| 20260831123009 | 18 | 219 | 0.0 | 0.0 | 0.00 | 0.00 | 0.00 | 97 | 1019.1 |
| 20260831122603 | 18 | 219 | 0.0 | 0.0 | 0.00 | 0.00 | 0.00 | 97 | 1019.2 |
| 20260831122003 | 18 | 219 | 0.0 | 0.0 | 0.00 | 0.00 | 0.00 | 97 | 1019.3 |
| 20260831121513 | 18 | 219 | 0.0 | 0.0 | 0.00 | 0.00 | 0.00 | 97 | 1019.2 |
| 20260831121102 | 18 | 219 | 0.0 | 0.0 | 0.00 | 0.00 | 0.00 | 97 | 1019.2 |
| 20260831120503 | 18 | 219 | 0.0 | 0.0 | 0.00 | 0.00 | 0.00 | 97 | 1019.2 |
| 20260831120010 | 18 | 219 | 0.0 | 0.0 | 0.00 | 0.00 | 0.00 | 97 | 1019.2 |
| 20260831115603 | 18 | 219 | 0.0 | 0.0 | 0.00 | 0.00 | 0.00 | 97 | 1019.1 |
| 20260831115003 | 18 | 219 | 0.0 | 0.0 | 0.00 | 0.00 | 0.00 | 97 | 1019.1 |
| 20260831114511 | 18 | 219 | 0.0 | 0.0 | 0.00 | 0.00 | 0.00 | 97 | 1019.1 |
| 20260831114103 | 18 | 219 | 0.0 | 0.0 | 0.00 | 0.00 | 0.00 | 97 | 1019.1 |
| 20260831113503 | 17 | 219 | 0.0 | 0.0 | 0.00 | 0.00 | 0.00 | 97 | 1019.1 |
| 20260831113010 | 17 | 219 | 0.0 | 0.0 | 0.00 | 0.00 | 0.00 | 97 | 1019.1 |
| 20260831112606 | 17 | 219 | 0.0 | 0.0 | 0.00 | 0.00 | 0.00 | 97 | 1019.0 |
| 20260831112002 | 17 | 219 | 0.0 | 0.0 | 0.00 | 0.00 | 0.00 | 97 | 1019.0 |
| 20260831111520 | 17 | 219 | 0.0 | 0.0 | 0.00 | 0.00 | 0.00 | 96 | 1019.0 |
| 20260831111106 | 17 | 219 | 0.0 | 0.0 | 0.00 | 0.00 | 0.00 | 96 | 1019.0 |
| 20260831110502 | 17 | 219 | 0.0 | 0.0 | 0.00 | 0.00 | 0.00 | 96 | 1018.9 |
| 20260831110008 | 17 | 219 | 0.0 | 0.0 | 0.00 | 0.00 | 0.00 | 96 | 1018.9 |
| 20260831105603 | 17 | 219 | 0.0 | 0.0 | 0.00 | 0.00 | 0.00 | 96 | 1018.9 |
| 20260831105003 | 17 | 219 | 0.0 | 0.0 | 0.00 | 0.00 | 0.00 | 96 | 1018.9 |
| 20260831104509 | 17 | 219 | 0.0 | 0.0 | 0.00 | 0.00 | 0.00 | 96 | 1018.9 |
| 20260831104103 | 17 | 219 | 0.0 | 0.0 | 0.00 | 0.00 | 0.00 | 96 | 1018.9 |
| 20260831103505 | 17 | 219 | 0.0 | 0.0 | 0.00 | 0.00 | 0.00 | 96 | 1019.0 |
| 20260831103019 | 17 | 219 | 0.0 | 0.0 | 0.00 | 0.00 | 0.00 | 96 | 1018.9 |
| 20260831102604 | 17 | 219 | 0.0 | 0.0 | 0.00 | 0.00 | 0.00 | 96 | 1018.8 |
| 20260831102004 | 17 | 219 | 0.0 | 0.0 | 0.00 | 0.00 | 0.00 | 96 | 1018.8 |
| 20260831101510 | 17 | 219 | 0.0 | 0.0 | 0.00 | 0.00 | 0.00 | 96 | 1018.8 |
| 20260831101103 | 17 | 219 | 0.0 | 0.0 | 0.00 | 0.00 | 0.00 | 96 | 1018.8 |
| 20260831100503 | 17 | 219 | 0.0 | 0.0 | 0.00 | 0.00 | 0.00 | 96 | 1018.8 |
| 20260831100011 | 18 | 219 | 0.0 | 0.0 | 0.00 | 0.00 | 0.00 | 96 | 1018.7 |
| 20260831095603 | 18 | 219 | 0.0 | 0.0 | 0.00 | 0.00 | 0.00 | 96 | 1018.6 |
| 20260831095003 | 17 | 219 | 0.0 | 0.0 | 0.00 | 0.00 | 0.00 | 96 | 1018.6 |
| 20260831094520 | 18 | 219 | 0.0 | 0.0 | 0.00 | 0.00 | 0.00 | 96 | 1018.7 |
| 20260831094103 | 18 | 219 | 0.0 | 0.0 | 0.00 | 0.00 | 0.00 | 96 | 1018.7 |
| 20260831093503 | 18 | 219 | 0.0 | 0.0 | 0.00 | 0.00 | 0.00 | 96 | 1018.7 |
| 20260831093010 | 18 | 219 | 0.0 | 0.0 | 0.00 | 0.00 | 0.00 | 96 | 1018.6 |
| 20260831092604 | 18 | 219 | 0.0 | 0.0 | 0.00 | 0.00 | 0.00 | 96 | 1018.6 |
| 20260831092002 | 18 | 219 | 0.0 | 0.0 | 0.00 | 0.00 | 0.00 | 96 | 1018.6 |
| 20260831091510 | 18 | 219 | 0.0 | 0.0 | 0.00 | 0.00 | 0.00 | 96 | 1018.5 |
| 20260831091103 | 18 | 219 | 0.0 | 0.0 | 0.00 | 0.00 | 0.00 | 96 | 1018.5 |
| 20260831090506 | 18 | 219 | 0.0 | 0.0 | 0.00 | 0.00 | 0.00 | 96 | 1018.4 |
| 20260831090009 | 18 | 219 | 0.0 | 0.0 | 0.00 | 0.00 | 0.00 | 96 | 1018.4 |
| 20260831085604 | 18 | 219 | 0.0 | 0.0 | 0.00 | 0.00 | 0.00 | 96 | 1018.4 |
| 20260831085002 | 18 | 219 | 0.0 | 0.0 | 0.00 | 0.00 | 0.00 | 96 | 1018.4 |
| 20260831084508 | 18 | 219 | 0.0 | 0.0 | 0.00 | 0.00 | 0.00 | 96 | 1018.5 |
| 20260831084103 | 18 | 219 | 0.0 | 0.0 | 0.00 | 0.00 | 0.00 | 96 | 1018.5 |
| 20260831083502 | 18 | 219 | 0.0 | 0.0 | 0.00 | 0.00 | 0.00 | 96 | 1018.6 |
| 20260831083018 | 18 | 219 | 0.0 | 0.0 | 0.00 | 0.00 | 0.00 | 96 | 1018.6 |
| 20260831082602 | 18 | 219 | 0.0 | 0.0 | 0.00 | 0.00 | 0.00 | 96 | 1018.6 |
| 20260831082003 | 18 | 219 | 0.0 | 0.0 | 0.00 | 0.00 | 0.00 | 96 | 1018.5 |
| 20260831081510 | 18 | 219 | 0.0 | 0.0 | 0.00 | 0.00 | 0.00 | 96 | 1018.5 |
| 20260831081102 | 18 | 219 | 0.0 | 0.0 | 0.00 | 0.00 | 0.00 | 95 | 1018.5 |
| 20260831080505 | 18 | 219 | 0.0 | 0.0 | 0.00 | 0.00 | 0.00 | 96 | 1018.5 |
| 20260831080027 | 18 | 219 | 0.0 | 0.0 | 0.00 | 0.00 | 0.00 | 96 | 1018.4 |
| 20260831075605 | 18 | 219 | 0.0 | 0.0 | 0.00 | 0.00 | 0.00 | 95 | 1018.4 |
| 20260831075002 | 18 | 219 | 0.0 | 0.0 | 0.00 | 0.00 | 0.00 | 95 | 1018.4 |
| 20260831074512 | 18 | 219 | 0.0 | 0.0 | 0.00 | 0.00 | 0.00 | 95 | 1018.5 |
| 20260831074105 | 18 | 219 | 0.0 | 0.0 | 0.00 | 0.00 | 0.00 | 95 | 1018.4 |
| 20260831073503 | 18 | 219 | 0.0 | 0.0 | 0.00 | 0.00 | 0.00 | 95 | 1018.5 |
| 20260831073021 | 18 | 219 | 0.0 | 0.0 | 0.00 | 0.00 | 0.00 | 95 | 1018.5 |
| 20260831072606 | 18 | 219 | 0.0 | 0.0 | 0.00 | 0.00 | 0.00 | 95 | 1018.5 |
| 20260831072002 | 18 | 219 | 0.0 | 0.0 | 0.00 | 0.00 | 0.00 | 95 | 1018.6 |
| 20260831071509 | 18 | 219 | 0.0 | 0.0 | 0.00 | 0.00 | 0.00 | 95 | 1018.6 |
| 20260831071104 | 18 | 219 | 0.0 | 0.0 | 0.00 | 0.00 | 0.00 | 95 | 1018.6 |
| 20260831070503 | 18 | 219 | 0.0 | 0.0 | 0.00 | 0.00 | 0.00 | 95 | 1018.6 |
| 20260831070011 | 18 | 219 | 0.0 | 0.0 | 0.00 | 0.00 | 0.00 | 95 | 1018.6 |
| 20260831065606 | 18 | 219 | 0.0 | 0.0 | 0.00 | 0.00 | 0.00 | 95 | 1018.6 |
| 20260831065002 | 18 | 219 | 0.0 | 0.0 | 0.00 | 0.00 | 0.00 | 95 | 1018.6 |
| 20260831064508 | 18 | 219 | 0.0 | 0.0 | 0.00 | 0.00 | 0.00 | 95 | 1018.7 |
| 20260831064103 | 18 | 219 | 0.0 | 0.0 | 0.00 | 0.00 | 0.00 | 95 | 1018.7 |
| 20260831063503 | 18 | 219 | 0.0 | 0.0 | 0.00 | 0.00 | 0.00 | 95 | 1018.7 |
| 20260831063017 | 18 | 219 | 0.0 | 0.0 | 0.00 | 0.00 | 0.00 | 95 | 1018.7 |
| 20260831062006 | 19 | 219 | 0.0 | 0.0 | 0.00 | 0.00 | 0.00 | 95 | 1018.7 |
| 20260831061509 | 19 | 219 | 0.0 | 0.0 | 0.00 | 0.00 | 0.00 | 95 | 1018.7 |
| 20260831061103 | 19 | 219 | 0.0 | 0.0 | 0.00 | 0.00 | 0.00 | 95 | 1018.7 |
| 20260831060502 | 19 | 219 | 0.0 | 0.0 | 0.00 | 0.00 | 0.00 | 95 | 1018.8 |
| 20260831060008 | 19 | 219 | 0.0 | 0.0 | 0.00 | 0.00 | 0.00 | 95 | 1018.9 |
| 20260831055603 | 19 | 219 | 0.0 | 0.0 | 0.00 | 0.00 | 0.00 | 95 | 1018.9 |
| 20260831055002 | 19 | 219 | 0.0 | 0.0 | 0.00 | 0.00 | 0.00 | 95 | 1018.9 |
| 20260831054509 | 19 | 219 | 0.0 | 0.0 | 0.00 | 0.00 | 0.00 | 95 | 1018.9 |
| 20260831054102 | 19 | 219 | 0.0 | 0.0 | 0.00 | 0.00 | 0.00 | 95 | 1018.9 |
| 20260831053502 | 19 | 219 | 0.0 | 0.0 | 0.00 | 0.00 | 0.00 | 95 | 1018.9 |
| 20260831053013 | 19 | 219 | 0.0 | 0.0 | 0.00 | 0.00 | 0.00 | 95 | 1018.9 |
| 20260831052605 | 19 | 219 | 0.0 | 0.0 | 0.00 | 0.00 | 0.00 | 95 | 1018.8 |
| 20260831052002 | 19 | 219 | 0.0 | 0.0 | 0.00 | 0.00 | 0.00 | 95 | 1018.8 |
| 20260831051511 | 20 | 219 | 0.0 | 0.0 | 0.00 | 0.00 | 0.00 | 95 | 1018.7 |
| 20260831051103 | 20 | 219 | 0.0 | 0.0 | 0.00 | 0.00 | 0.00 | 95 | 1018.8 |
| 20260831050502 | 20 | 219 | 0.0 | 0.0 | 0.00 | 0.00 | 0.00 | 95 | 1018.8 |
| 20260831050009 | 20 | 219 | 0.0 | 0.0 | 0.00 | 0.00 | 0.00 | 95 | 1018.8 |
| 20260831045606 | 20 | 219 | 0.0 | 0.0 | 0.00 | 0.00 | 0.00 | 95 | 1018.7 |
| 20260831045003 | 20 | 219 | 0.0 | 0.0 | 0.00 | 0.00 | 0.00 | 95 | 1018.8 |
| 20260831044514 | 20 | 219 | 0.0 | 0.0 | 0.00 | 0.00 | 0.00 | 95 | 1018.8 |
| 20260831044102 | 20 | 219 | 0.0 | 0.0 | 0.00 | 0.00 | 0.00 | 95 | 1018.7 |
| 20260831043504 | 20 | 219 | 0.0 | 0.0 | 0.00 | 0.00 | 0.00 | 95 | 1018.7 |
| 20260831043009 | 20 | 219 | 0.0 | 0.0 | 0.00 | 0.00 | 0.00 | 95 | 1018.7 |
| 20260831042605 | 20 | 219 | 0.0 | 0.0 | 0.00 | 0.00 | 0.00 | 94 | 1018.7 |
| 20260831042002 | 20 | 219 | 0.0 | 0.0 | 0.00 | 0.00 | 0.00 | 94 | 1018.7 |
| 20260831041511 | 20 | 219 | 0.0 | 0.0 | 0.00 | 0.00 | 0.00 | 94 | 1018.7 |
| 20260831041104 | 20 | 219 | 0.0 | 0.0 | 0.00 | 0.00 | 0.00 | 94 | 1018.8 |
| 20260831040511 | 20 | 219 | 0.0 | 0.0 | 0.00 | 0.00 | 0.00 | 94 | 1018.8 |
| 20260831040009 | 20 | 219 | 0.0 | 0.0 | 0.00 | 0.00 | 0.00 | 94 | 1018.9 |
| 20260831035606 | 20 | 219 | 0.0 | 0.0 | 0.00 | 0.00 | 0.00 | 94 | 1018.9 |
| 20260831035003 | 20 | 219 | 0.0 | 0.0 | 0.00 | 0.00 | 0.00 | 94 | 1018.9 |
| 20260831034509 | 20 | 219 | 0.0 | 0.0 | 0.00 | 0.00 | 0.00 | 94 | 1018.9 |
| 20260831034103 | 20 | 219 | 0.0 | 0.0 | 0.00 | 0.00 | 0.00 | 94 | 1018.9 |
| 20260831033503 | 20 | 219 | 0.0 | 0.0 | 0.00 | 0.00 | 0.00 | 94 | 1018.9 |
| 20260831033009 | 20 | 219 | 0.0 | 0.0 | 0.00 | 0.00 | 0.00 | 94 | 1018.9 |
| 20260831032603 | 20 | 219 | 0.0 | 0.0 | 0.00 | 0.00 | 0.00 | 94 | 1019.0 |
| 20260831032004 | 21 | 219 | 0.0 | 0.0 | 0.00 | 0.00 | 0.00 | 94 | 1019.1 |
| 20260831031509 | 21 | 219 | 0.0 | 0.0 | 0.00 | 0.00 | 0.00 | 94 | 1019.1 |
| 20260831031103 | 21 | 219 | 0.0 | 0.0 | 0.00 | 0.00 | 0.00 | 94 | 1019.2 |
| 20260831030503 | 21 | 219 | 0.0 | 0.0 | 0.00 | 0.00 | 0.00 | 94 | 1019.2 |
| 20260831030008 | 21 | 219 | 0.0 | 0.0 | 0.00 | 0.00 | 0.00 | 93 | 1019.1 |
| 20260831025602 | 21 | 219 | 0.0 | 0.0 | 0.00 | 0.00 | 0.00 | 93 | 1019.2 |
| 20260831025002 | 21 | 219 | 0.0 | 0.0 | 0.00 | 0.00 | 0.00 | 93 | 1019.3 |
| 20260831024509 | 21 | 219 | 0.0 | 0.0 | 0.00 | 0.00 | 0.00 | 93 | 1019.3 |
| 20260831024103 | 21 | 219 | 0.0 | 0.0 | 0.00 | 0.00 | 0.00 | 93 | 1019.3 |
| 20260831023502 | 21 | 219 | 0.0 | 0.0 | 0.00 | 0.00 | 0.00 | 93 | 1019.3 |
| 20260831023009 | 21 | 219 | 0.0 | 0.0 | 0.00 | 0.00 | 0.00 | 93 | 1019.3 |
| 20260831022603 | 21 | 219 | 0.0 | 0.0 | 0.00 | 0.00 | 0.00 | 93 | 1019.3 |
| 20260831022003 | 21 | 219 | 0.0 | 0.0 | 0.00 | 0.00 | 0.00 | 93 | 1019.2 |
| 20260831021509 | 21 | 219 | 0.0 | 0.0 | 0.00 | 0.00 | 0.00 | 92 | 1019.2 |
| 20260831021104 | 21 | 219 | 0.0 | 0.0 | 0.00 | 0.00 | 0.00 | 92 | 1019.1 |
| 20260831020503 | 21 | 219 | 0.0 | 0.0 | 0.00 | 0.00 | 0.00 | 92 | 1019.1 |
| 20260831020009 | 21 | 219 | 0.0 | 0.0 | 0.00 | 0.00 | 0.00 | 92 | 1019.0 |
| 20260831015603 | 22 | 219 | 0.0 | 0.0 | 0.00 | 0.00 | 0.00 | 92 | 1018.9 |
| 20260831015002 | 22 | 219 | 0.0 | 0.0 | 0.00 | 0.00 | 0.00 | 92 | 1018.9 |
| 20260831014508 | 22 | 219 | 0.0 | 0.0 | 0.00 | 0.00 | 0.00 | 92 | 1018.9 |
| 20260831014103 | 22 | 219 | 0.0 | 0.0 | 0.00 | 0.00 | 0.00 | 91 | 1018.9 |
| 20260831013504 | 22 | 219 | 0.0 | 0.0 | 0.00 | 0.00 | 0.00 | 91 | 1018.8 |
| 20260831013011 | 22 | 219 | 0.0 | 0.0 | 0.00 | 0.00 | 0.00 | 91 | 1019.0 |
| 20260831012602 | 22 | 219 | 0.0 | 0.0 | 0.00 | 0.00 | 0.00 | 91 | 1018.9 |
| 20260831012002 | 22 | 219 | 0.0 | 0.0 | 0.00 | 0.00 | 0.00 | 91 | 1018.9 |
| 20260831011509 | 22 | 219 | 0.0 | 0.0 | 0.00 | 0.00 | 0.00 | 91 | 1018.8 |
| 20260831011103 | 22 | 219 | 0.0 | 0.0 | 0.00 | 0.00 | 0.00 | 90 | 1018.7 |
| 20260831010503 | 22 | 219 | 0.0 | 0.0 | 0.00 | 0.00 | 0.00 | 90 | 1018.5 |
| 20260831010009 | 22 | 219 | 0.0 | 0.0 | 0.00 | 0.00 | 0.00 | 89 | 1018.5 |
| 20260831005604 | 23 | 219 | 0.0 | 0.0 | 0.00 | 0.00 | 0.00 | 89 | 1018.5 |
| 20260831005003 | 23 | 219 | 0.0 | 0.0 | 0.00 | 0.00 | 0.00 | 89 | 1018.4 |
| 20260831004508 | 23 | 219 | 0.0 | 0.0 | 0.00 | 0.00 | 0.00 | 88 | 1018.5 |
| 20260831004102 | 23 | 219 | 0.0 | 0.0 | 0.00 | 0.00 | 0.00 | 88 | 1018.5 |
| 20260831003505 | 23 | 219 | 0.0 | 0.0 | 0.00 | 0.00 | 0.00 | 87 | 1018.4 |
| 20260831003008 | 23 | 219 | 0.0 | 0.0 | 0.00 | 0.00 | 0.00 | 87 | 1018.4 |
| 20260831002602 | 23 | 219 | 0.0 | 0.0 | 0.00 | 0.00 | 0.00 | 86 | 1018.4 |
| 20260831002002 | 24 | 219 | 0.0 | 0.0 | 0.00 | 0.00 | 0.00 | 86 | 1018.4 |
| 20260831001508 | 24 | 219 | 0.0 | 0.0 | 0.00 | 0.00 | 0.00 | 85 | 1018.3 |
| 20260831001103 | 24 | 219 | 0.0 | 0.0 | 0.00 | 0.00 | 0.00 | 85 | 1018.4 |
| 20260831000503 | 25 | 219 | 0.0 | 0.0 | 0.00 | 0.00 | 0.00 | 84 | 1018.4 |
| 20260831000019 | 25 | 219 | 0.0 | 0.0 | 0.00 | 0.00 | 0.00 | 84 | 1018.5 |
| 20260830235602 | 25 | 219 | 0.0 | 0.0 | 0.00 | 0.00 | 0.00 | 83 | 1018.5 |
| 20260830235003 | 25 | 219 | 0.0 | 0.0 | 0.00 | 0.00 | 0.00 | 83 | 1018.5 |
| 20260830234508 | 25 | 219 | 0.0 | 0.0 | 0.00 | 0.00 | 0.00 | 82 | 1018.4 |
| 20260830234103 | 25 | 219 | 0.0 | 0.0 | 0.00 | 0.00 | 0.00 | 82 | 1018.4 |
| 20260830233503 | 25 | 219 | 0.0 | 0.0 | 0.00 | 0.00 | 0.00 | 81 | 1018.5 |
| 20260830233008 | 26 | 219 | 0.0 | 0.0 | 0.00 | 0.00 | 0.00 | 80 | 1018.5 |
| 20260830232603 | 26 | 219 | 0.0 | 0.0 | 0.00 | 0.00 | 0.00 | 80 | 1018.4 |
| 20260830232004 | 26 | 219 | 0.0 | 0.0 | 0.00 | 0.00 | 0.00 | 79 | 1018.5 |
| 20260830231508 | 26 | 219 | 0.0 | 0.0 | 0.00 | 0.00 | 0.00 | 77 | 1018.5 |
| 20260830231102 | 26 | 219 | 0.0 | 0.0 | 0.00 | 0.00 | 0.00 | 78 | 1018.4 |
| 20260830230502 | 26 | 219 | 0.0 | 0.0 | 0.00 | 0.00 | 0.00 | 77 | 1018.4 |
| 20260830230015 | 26 | 219 | 0.0 | 0.0 | 0.00 | 0.00 | 0.00 | 76 | 1018.5 |
| 20260830225603 | 27 | 219 | 0.0 | 0.0 | 0.00 | 0.00 | 0.00 | 76 | 1018.3 |
| 20260830225002 | 27 | 219 | 0.0 | 0.0 | 0.00 | 0.00 | 0.00 | 74 | 1018.4 |
| 20260830224511 | 27 | 219 | 0.0 | 0.0 | 0.00 | 0.00 | 0.00 | 75 | 1018.4 |
| 20260830224104 | 27 | 219 | 0.0 | 0.0 | 0.00 | 0.00 | 0.00 | 75 | 1018.3 |
| 20260830223503 | 27 | 220 | 0.0 | 0.0 | 0.00 | 0.00 | 0.00 | 73 | 1018.4 |
| 20260830223009 | 27 | 220 | 0.0 | 0.0 | 0.00 | 0.00 | 0.00 | 74 | 1018.3 |
| 20260830222606 | 27 | 220 | 0.0 | 0.0 | 0.00 | 0.00 | 0.00 | 71 | 1018.2 |
| 20260830222004 | 27 | 220 | 0.0 | 0.0 | 0.00 | 0.00 | 0.00 | 72 | 1018.2 |
| 20260830221508 | 28 | 220 | 0.0 | 0.0 | 0.00 | 0.00 | 0.00 | 72 | 1018.1 |
| 20260830221103 | 28 | 220 | 0.0 | 0.0 | 0.00 | 0.00 | 0.00 | 71 | 1018.1 |
| 20260830220503 | 28 | 220 | 0.0 | 0.0 | 0.00 | 0.00 | 0.00 | 70 | 1018.1 |
| 20260830220009 | 28 | 220 | 0.0 | 0.0 | 0.00 | 0.00 | 0.00 | 67 | 1018.2 |
| 20260830215604 | 28 | 220 | 0.0 | 0.0 | 0.00 | 0.00 | 0.00 | 68 | 1018.2 |
| 20260830215002 | 28 | 218 | 0.0 | 0.0 | 0.00 | 0.00 | 0.00 | 67 | 1018.2 |
| 20260830214508 | 28 | 186 | 0.0 | 0.0 | 0.00 | 0.00 | 0.00 | 67 | 1018.1 |
| 20260830214103 | 28 | 198 | 0.0 | 0.0 | 0.00 | 0.00 | 0.00 | 68 | 1018.2 |
| 20260830213504 | 29 | 198 | 0.0 | 0.0 | 0.00 | 0.00 | 0.00 | 66 | 1018.2 |
| 20260830213018 | 29 | 200 | 0.0 | 0.0 | 0.00 | 0.00 | 0.00 | 65 | 1018.2 |
| 20260830212602 | 29 | 200 | 0.0 | 0.0 | 0.00 | 0.00 | 0.00 | 64 | 1018.1 |
| 20260830212002 | 30 | 200 | 0.0 | 0.0 | 0.00 | 0.00 | 0.00 | 66 | 1018.1 |
| 20260830211510 | 30 | 200 | 0.0 | 0.0 | 0.00 | 0.00 | 0.00 | 60 | 1018.1 |
| 20260830211102 | 30 | 200 | 0.0 | 1.6 | 0.00 | 0.00 | 0.00 | 59 | 1018.1 |
| 20260830210502 | 30 | 199 | 0.0 | 1.6 | 0.00 | 0.00 | 0.00 | 60 | 1018.2 |
| 20260830210009 | 30 | 198 | 0.0 | 0.0 | 0.00 | 0.00 | 0.00 | 62 | 1018.2 |
| 20260830205605 | 30 | 196 | 0.0 | 1.6 | 0.00 | 0.00 | 0.00 | 61 | 1018.3 |
| 20260830205004 | 31 | 227 | 0.0 | 3.2 | 0.00 | 0.00 | 0.00 | 61 | 1018.4 |
| 20260830204512 | 31 | 171 | 0.0 | 3.2 | 0.00 | 0.00 | 0.00 | 60 | 1018.4 |
| 20260830204103 | 31 | 202 | 0.0 | 1.6 | 0.00 | 0.00 | 0.00 | 56 | 1018.4 |
| 20260830203502 | 31 | 202 | 0.0 | 3.2 | 0.00 | 0.00 | 0.00 | 60 | 1018.4 |
| 20260830203009 | 31 | 202 | 0.0 | 8.0 | 0.00 | 0.00 | 0.00 | 59 | 1018.5 |
| 20260830202604 | 31 | 238 | 0.0 | 8.0 | 0.00 | 0.00 | 0.00 | 60 | 1018.5 |
| 20260830202003 | 30 | 193 | 0.0 | 3.2 | 0.00 | 0.00 | 0.00 | 59 | 1018.5 |
| 20260830201508 | 30 | 226 | 0.0 | 1.6 | 0.00 | 0.00 | 0.00 | 60 | 1018.6 |
| 20260830201103 | 30 | 224 | 0.0 | 1.6 | 0.00 | 0.00 | 0.00 | 59 | 1018.7 |
| 20260830200502 | 30 | 175 | 0.0 | 1.6 | 0.00 | 0.00 | 0.00 | 62 | 1018.8 |
| 20260830200008 | 30 | 201 | 0.0 | 3.2 | 0.00 | 0.00 | 0.00 | 62 | 1018.9 |
| 20260830195605 | 30 | 214 | 0.0 | 3.2 | 0.00 | 0.00 | 0.00 | 60 | 1018.9 |
| 20260830195002 | 30 | 183 | 0.0 | 1.6 | 0.00 | 0.00 | 0.00 | 61 | 1018.9 |
| 20260830194509 | 30 | 195 | 0.0 | 6.4 | 0.00 | 0.00 | 0.00 | 65 | 1019.0 |
| 20260830194104 | 30 | 189 | 0.0 | 6.4 | 0.00 | 0.00 | 0.00 | 63 | 1019.1 |
| 20260830193502 | 30 | 235 | 0.0 | 4.8 | 0.00 | 0.00 | 0.00 | 64 | 1019.1 |
| 20260830193009 | 30 | 239 | 0.0 | 4.8 | 0.00 | 0.00 | 0.00 | 63 | 1019.2 |
| 20260830192603 | 30 | 218 | 1.6 | 4.8 | 0.00 | 0.00 | 0.00 | 63 | 1019.2 |
| 20260830192003 | 30 | 208 | 0.0 | 4.8 | 0.00 | 0.00 | 0.00 | 63 | 1019.3 |
| 20260830191509 | 30 | 163 | 0.0 | 3.2 | 0.00 | 0.00 | 0.00 | 66 | 1019.3 |
| 20260830191103 | 30 | 175 | 0.0 | 3.2 | 0.00 | 0.00 | 0.00 | 64 | 1019.3 |
| 20260830190502 | 30 | 13 | 0.0 | 4.8 | 0.00 | 0.00 | 0.00 | 64 | 1019.3 |
| 20260830190009 | 30 | 196 | 0.0 | 4.8 | 0.00 | 0.00 | 0.00 | 65 | 1019.4 |
| 20260830185603 | 30 | 229 | 0.0 | 3.2 | 0.00 | 0.00 | 0.00 | 66 | 1019.4 |
| 20260830185003 | 29 | 185 | 0.0 | 1.6 | 0.00 | 0.00 | 0.00 | 65 | 1019.6 |
| 20260830184517 | 29 | 200 | 0.0 | 1.6 | 0.00 | 0.00 | 0.00 | 67 | 1019.7 |
| 20260830184103 | 29 | 211 | 0.0 | 1.6 | 0.00 | 0.00 | 0.00 | 65 | 1019.8 |
| 20260830183502 | 29 | 183 | 0.0 | 3.2 | 0.00 | 0.00 | 0.00 | 69 | 1019.9 |
| 20260830183008 | 29 | 211 | 0.0 | 3.2 | 0.00 | 0.00 | 0.00 | 69 | 1019.9 |
| 20260830182604 | 29 | 176 | 0.0 | 4.8 | 0.00 | 0.00 | 0.00 | 67 | 1020.1 |